LPR6 EPKX-EPKX

Flight info

Callsign LPR6
Flight time 0h 19m
Altitude 2000
Route DCT
Aircraft EC35/L-S/C

Departure

Time 2026-05-04 18:36
Airport Kokotowie LPR HEMS Heliport (EPKX)

Arrival

Time 2026-05-04 18:55
Airport Kokotowie LPR HEMS Heliport (EPKX)
Time Latitude Longitude Altitude Speed Heading
2026-05-04 18:23 50.02238 20.07033 647 ft 0 kts 150°
2026-05-04 18:34 50.02241 20.07030 647 ft 6 kts 148°
2026-05-04 18:34 50.02293 20.07014 667 ft 8 kts 150°
2026-05-04 18:35 50.02305 20.06984 699 ft 1 kts 311°
2026-05-04 18:35 50.02330 20.06923 737 ft 15 kts 282°
2026-05-04 18:35 50.02399 20.06720 903 ft 27 kts 282°
2026-05-04 18:35 50.02480 20.06394 1190 ft 38 kts 282°
2026-05-04 18:36 50.02591 20.05950 1561 ft 55 kts 286°
2026-05-04 18:36 50.02768 20.05218 1630 ft 83 kts 285°
2026-05-04 18:36 50.02978 20.04350 1720 ft 86 kts 285°
2026-05-04 18:36 50.03171 20.03488 1853 ft 83 kts 283°
2026-05-04 18:37 50.03392 20.02602 1868 ft 92 kts 286°
2026-05-04 18:37 50.03665 20.01619 1789 ft 103 kts 288°
2026-05-04 18:37 50.03982 20.00624 1827 ft 101 kts 289°
2026-05-04 18:37 50.04293 19.99656 1873 ft 99 kts 289°
2026-05-04 18:38 50.04587 19.98755 1938 ft 87 kts 289°
2026-05-04 18:38 50.04888 19.98017 2021 ft 78 kts 292°
2026-05-04 18:38 50.05191 19.97279 1878 ft 95 kts 290°
2026-05-04 18:38 50.05495 19.96378 1794 ft 89 kts 288°
2026-05-04 18:39 50.05714 19.95555 1840 ft 77 kts 282°
2026-05-04 18:39 50.05898 19.94811 1871 ft 72 kts 283°
2026-05-04 18:39 50.06087 19.94079 1862 ft 73 kts 283°
2026-05-04 18:39 50.06302 19.93348 1854 ft 75 kts 284°
2026-05-04 18:40 50.06496 19.92584 1821 ft 79 kts 282°
2026-05-04 18:40 50.06678 19.91755 1760 ft 83 kts 281°
2026-05-04 18:40 50.06860 19.90885 1693 ft 85 kts 281°
2026-05-04 18:40 50.07015 19.90037 1704 ft 79 kts 278°
2026-05-04 18:41 50.07161 19.89214 1743 ft 79 kts 281°
2026-05-04 18:41 50.07342 19.88397 1779 ft 81 kts 281°
2026-05-04 18:41 50.07510 19.87540 1784 ft 85 kts 278°
2026-05-04 18:41 50.07657 19.86624 1764 ft 85 kts 277°
2026-05-04 18:42 50.07796 19.85813 1915 ft 74 kts 278°
2026-05-04 18:42 50.07907 19.84886 1763 ft 99 kts 272°
2026-05-04 18:42 50.07957 19.83761 1658 ft 107 kts 266°
2026-05-04 18:42 50.07946 19.82617 1549 ft 105 kts 265°
2026-05-04 18:43 50.07945 19.81489 1465 ft 104 kts 267°
2026-05-04 18:43 50.07994 19.80358 1358 ft 106 kts 271°
2026-05-04 18:43 50.08037 19.79173 1174 ft 111 kts 267°
2026-05-04 18:43 50.08040 19.78006 1067 ft 104 kts 263°
2026-05-04 18:44 50.08013 19.77052 1033 ft 60 kts 256°
2026-05-04 18:44 50.07989 19.76767 855 ft 28 kts 323°
2026-05-04 18:44 50.08003 19.76785 796 ft 1 kts 86°
2026-05-04 18:50 50.08003 19.76784 796 ft 2 kts 84°
2026-05-04 18:50 50.08003 19.76733 807 ft 6 kts 84°
2026-05-04 18:50 50.08009 19.76698 896 ft 4 kts 80°
2026-05-04 18:51 50.08066 19.76719 945 ft 18 kts 67°
2026-05-04 18:51 50.08151 19.76907 1037 ft 25 kts 57°
2026-05-04 18:51 50.08309 19.77178 1244 ft 44 kts 52°
2026-05-04 18:51 50.08552 19.77740 1438 ft 81 kts 58°
2026-05-04 18:52 50.08892 19.78569 1574 ft 98 kts 59°
2026-05-04 18:52 50.09263 19.79571 1688 ft 116 kts 58°
2026-05-04 18:52 50.09699 19.80694 1775 ft 123 kts 59°
2026-05-04 18:52 50.10100 19.81867 1873 ft 128 kts 74°
2026-05-04 18:53 50.10349 19.83243 1808 ft 139 kts 82°
2026-05-04 18:53 50.10476 19.84751 1826 ft 136 kts 83°
2026-05-04 18:53 50.10584 19.86204 1874 ft 136 kts 83°
2026-05-04 18:53 50.10713 19.87649 1903 ft 131 kts 83°
2026-05-04 18:54 50.10786 19.89028 1888 ft 127 kts 102°
2026-05-04 18:54 50.10519 19.90368 1676 ft 130 kts 114°
2026-05-04 18:54 50.10141 19.91574 1657 ft 122 kts 117°
2026-05-04 18:54 50.09740 19.92673 1585 ft 110 kts 120°
2026-05-04 18:55 50.09423 19.93459 1295 ft 52 kts 136°
2026-05-04 18:55 50.09212 19.93625 915 ft 15 kts 167°
2026-05-04 18:55 50.09157 19.93634 854 ft 1 kts 169°
2026-05-04 18:56 50.09136 19.93650 838 ft 5 kts 174°
2026-05-04 18:56 50.09123 19.93655 819 ft 1 kts 179°
2026-05-04 18:56 50.09119 19.93657 802 ft 0 kts 180°
2026-05-04 19:02 50.09128 19.93653 812 ft 5 kts 180°
2026-05-04 19:02 50.09167 19.93658 833 ft 2 kts 186°
2026-05-04 19:03 50.09180 19.93653 923 ft 4 kts 185°
2026-05-04 19:03 50.09211 19.93576 1067 ft 11 kts 148°
2026-05-04 19:03 50.09242 19.93622 1238 ft 18 kts 130°
2026-05-04 19:03 50.09236 19.93682 1396 ft 11 kts 127°
2026-05-04 19:04 50.09311 19.93664 1484 ft 6 kts 129°
2026-05-04 19:04 50.09237 19.93789 1562 ft 36 kts 133°
2026-05-04 19:04 50.08948 19.94233 1795 ft 78 kts 132°
2026-05-04 19:04 50.08529 19.95012 1826 ft 112 kts 129°
2026-05-04 19:05 50.08012 19.96038 1835 ft 122 kts 130°
2026-05-04 19:05 50.07523 19.97122 1892 ft 123 kts 128°
2026-05-04 19:05 50.07024 19.98253 1830 ft 131 kts 127°
2026-05-04 19:05 50.06492 19.99390 1853 ft 129 kts 131°
2026-05-04 19:06 50.05929 20.00451 1912 ft 125 kts 135°
2026-05-04 19:06 50.05347 20.01426 2003 ft 123 kts 139°
2026-05-04 19:06 50.04742 20.02431 1859 ft 132 kts 134°
2026-05-04 19:06 50.04191 20.03490 1945 ft 120 kts 132°
2026-05-04 19:07 50.03691 20.04477 1943 ft 111 kts 130°
2026-05-04 19:07 50.03240 20.05383 1873 ft 105 kts 131°
2026-05-04 19:07 50.02865 20.06176 1638 ft 75 kts 129°
2026-05-04 19:07 50.02579 20.06667 1140 ft 47 kts 129°
2026-05-04 19:08 50.02416 20.06869 775 ft 20 kts 148°
2026-05-04 19:08 50.02343 20.06933 699 ft 3 kts 149°
2026-05-04 19:08 50.02311 20.06958 686 ft 6 kts 149°
2026-05-04 19:08 50.02287 20.06980 679 ft 7 kts 150°
2026-05-04 19:09 50.02260 20.07008 669 ft 2 kts 149°
2026-05-04 19:09 50.02246 20.07024 654 ft 3 kts 147°
2026-05-04 19:09 50.02243 20.07026 652 ft 0 kts 144°